[[{"header":{"parameterUnit":"m.s-1","parameterCategory":1,"la1":30.2992,"la2":30.254,"lo1":-89.0895,"lo2":-89.0443,"dy":0.0025,"dx":0.0025,"nx":19,"ny":19,"refTime":"2026-03-08T21:00:00:Z","depth":0,"parameterNumber":2,"parameterNumberName":"U-component_of_WINDS"},"data":[0,0,0,-1.0506,-1.0508,-1.0568,-1.0568,-1.0646,-1.0646,0,0,0,0,0,0,0,0,0,0,0,-1.0487,-1.0487,-1.0506,-1.0508,-1.0568,-1.0568,-1.0646,-1.0646,0,0,0,0,0,0,0,0,0,0,0,-1.0487,-1.0487,-1.0488,-1.0508,-1.0568,-1.0568,-1.0645,-1.06,0,0,0,0,0,0,0,0,0,0,-1.0542,-1.0521,-1.0487,-1.0488,-1.0508,-1.0568,-1.0568,-1.0598,-1.0603,-1.0618,0,-1.0629,0,-1.0639,-1.0651,-1.0652,0,0,0,-1.051,-1.0517,-1.0535,-1.0488,-1.0509,-1.0568,-1.0541,-1.0601,-1.0607,-1.0625,-1.063,-1.0633,-1.064,-1.0652,-1.0652,-1.0727,-1.0728,0,0,-1.0506,-1.0497,-1.0531,-1.0538,-1.0527,-1.0539,-1.0543,-1.0604,-1.061,-1.063,-1.0635,-1.0641,-1.0652,-1.0653,-1.0727,-1.0727,0,0,0,-1.0496,-1.0495,-1.0511,-1.0535,-1.0546,-1.0541,-1.0545,-1.0608,-1.0614,-1.0636,-1.0642,-1.0653,-1.0654,-1.0727,-1.0727,-1.073,0,0,0,-1.0494,-1.0488,-1.0509,-1.0504,-1.0545,-1.0577,-1.0547,-1.0609,-1.0617,-1.0642,-1.0653,-1.0654,-1.0727,-1.0727,-1.073,-1.0734,0,0,0,-1.0484,-1.0487,-1.0495,-1.0504,-1.0529,-1.0576,-1.0586,-1.0611,-1.0621,-1.0652,-1.0655,-1.0726,-1.0727,-1.0729,-1.0733,-1.0751,0,0,0,-1.0471,-1.0498,-1.0495,-1.0528,-1.0528,-1.0577,-1.0586,-1.0623,-1.065,-1.0653,-1.0727,-1.0727,-1.0729,-1.0732,-1.075,-1.0764,-1.0769,0,0,-1.05,-1.0501,-1.0521,-1.0521,-1.0567,-1.0569,-1.0617,-1.0651,-1.0664,-1.0706,-1.0708,-1.073,-1.0732,-1.075,-1.0799,-1.0803,0,0,0,-1.0527,-1.0542,-1.0556,-1.0581,-1.0607,-1.063,-1.0658,-1.0671,-1.0707,-1.0683,-1.0742,-1.0744,-1.0755,-1.0762,-1.0765,-1.0775,-1.073,-1.073,-1.073,-1.0555,-1.0569,-1.0604,-1.0624,-1.0648,-1.0677,-1.0698,-1.0721,-1.0728,-1.0742,-1.0755,-1.0782,-1.079,-1.0793,-1.0803,-1.0763,-1.0763,-1.0763,-1.0763,-1.06,-1.0622,-1.0631,-1.0667,-1.0682,-1.0714,-1.0744,-1.0748,-1.0781,-1.0774,-1.0784,-1.0775,-1.0796,-1.0807,-1.0764,-1.0764,-1.0764,-1.0764,-1.0764,-1.0619,-1.0632,-1.0647,-1.0684,-1.0712,-1.0733,-1.0764,-1.0777,-1.079,-1.08,-1.0815,-1.0815,-1.0817,-1.0806,-1.0806,-1.0806,-1.0806,-1.0807,-1.0807,-1.0634,-1.065,-1.0673,-1.0704,-1.0721,-1.0747,-1.0777,-1.0795,-1.082,-1.0827,-1.0827,-1.0833,-1.0796,-1.0786,-1.0808,-1.0808,-1.0808,-1.0808,-1.0807,-1.0673,-1.0666,-1.0702,-1.072,-1.0757,-1.0785,-1.0801,-1.0838,-1.0855,-1.0871,-1.0875,-1.0845,-1.0848,-1.0845,-1.0837,-1.0872,-1.0872,-1.0872,-1.0872,-1.069,-1.0692,-1.0732,-1.076,-1.0789,-1.0807,-1.085,-1.0874,-1.0898,-1.091,-1.0908,-1.0898,-1.0895,-1.09,-1.0896,-1.0889,-1.0935,-1.0936,-1.0936,-1.0715,-1.0721,-1.0753,-1.0775,-1.0805,-1.0832,-1.0873,-1.0906,-1.0933,-1.0938,-1.092,-1.0918,-1.0903,-1.0897,-1.0902,-1.0896,-1.0883,0,0]},{"header":{"parameterUnit":"m.s-1","parameterCategory":1,"la1":30.2992,"la2":30.254,"lo1":-89.0895,"lo2":-89.0443,"dy":0.0025,"dx":0.0025,"nx":19,"ny":19,"refTime":"2026-03-08T21:00:00:Z","depth":0,"parameterNumber":3,"parameterNumberName":"V-component_of_WINDS"},"data":[0,0,0,2.0314,2.0313,2.0298,2.0298,2.0269,2.0269,0,0,0,0,0,0,0,0,0,0,0,2.0312,2.0312,2.0314,2.0313,2.0298,2.0298,2.0269,2.0269,0,0,0,0,0,0,0,0,0,0,0,2.0312,2.0312,2.0311,2.0313,2.0298,2.0298,2.0269,2.0284,0,0,0,0,0,0,0,0,0,0,2.0301,2.0293,2.0312,2.0311,2.0313,2.0298,2.0298,2.0285,2.0283,2.0272,0,2.026,0,2.0264,2.0266,2.0266,0,0,0,2.0318,2.0294,2.0296,2.0311,2.0313,2.0298,2.0306,2.0284,2.0282,2.027,2.0259,2.0259,2.0263,2.0266,2.0266,2.0186,2.0185,0,0,2.0319,2.0306,2.0297,2.0294,2.0295,2.0307,2.0305,2.0283,2.0271,2.0259,2.0258,2.0263,2.0266,2.0265,2.0186,2.0186,0,0,0,2.0318,2.0306,2.0309,2.0295,2.0293,2.0306,2.0305,2.0272,2.0274,2.0258,2.0262,2.0265,2.0265,2.0187,2.0186,2.0145,0,0,0,2.0319,2.0306,2.0309,2.0301,2.0293,2.0282,2.0294,2.0276,2.0274,2.0263,2.0265,2.0265,2.0188,2.0186,2.0147,2.0128,0,0,0,2.0315,2.0306,2.0301,2.03,2.0293,2.0283,2.0284,2.0276,2.0276,2.0266,2.0264,2.0188,2.0187,2.015,2.0131,2.0104,0,0,0,2.0308,2.0263,2.03,2.0253,2.0293,2.0257,2.0284,2.0258,2.0244,2.0265,2.0188,2.0186,2.015,2.0134,2.0107,2.008,2.0067,0,0,2.0244,2.0255,2.0228,2.0261,2.0216,2.0261,2.021,2.0209,2.022,2.0197,2.0195,2.0147,2.0132,2.0105,1.9999,1.9988,0,0,0,2.0204,2.0185,2.0176,2.0162,2.0162,2.016,2.0169,2.0169,2.0151,2.0205,2.0129,2.0121,2.0106,2.0094,2.0085,2.0074,2.018,2.018,2.018,2.0095,2.0113,2.0071,2.0087,2.0074,2.0085,2.0077,2.0079,2.0099,2.0081,2.0075,2.0008,1.9993,1.9987,1.9975,2.0061,2.0061,2.0061,2.0061,2.0006,1.9982,2.0012,1.9982,2.0001,1.9976,1.9986,2.0002,1.9983,2.0014,2.0001,2.0035,1.9975,1.9966,2.0058,2.0058,2.0059,2.0059,2.0059,1.9937,1.9929,1.9931,1.9916,1.9903,1.9921,1.9902,1.992,1.9936,1.9924,1.992,1.9921,1.9925,1.9921,1.9921,1.992,1.992,1.992,1.992,1.9866,1.987,1.9851,1.9849,1.9844,1.9841,1.9853,1.985,1.985,1.9865,1.9865,1.9889,1.9966,1.9985,1.9916,1.9917,1.9917,1.9918,1.9918,1.977,1.9795,1.9767,1.9762,1.9763,1.975,1.9773,1.9765,1.9765,1.9755,1.9782,1.9836,1.9848,1.9855,1.9871,1.9777,1.9777,1.9777,1.9777,1.9713,1.9722,1.9698,1.9691,1.9685,1.9705,1.9674,1.9685,1.9699,1.9701,1.9717,1.9741,1.9747,1.9755,1.9765,1.9781,1.9665,1.9665,1.9665,1.9656,1.9665,1.9635,1.965,1.9653,1.9655,1.9628,1.9619,1.9641,1.9661,1.9703,1.9708,1.9746,1.9757,1.9777,1.9791,1.982,0,0]}]]